AC5JC-1 Weather Reports


Display with metric or nautical units.
time (UTC)temp
F
wind
direction
speed
MPH
gust
MPH
rain 1hr
in
rain 24hr
in
rain mn
in
humidity
%
barometer
mb
20260509083035 68 88 1.0 2.0 0.00 0.06 0.00 88 1007.2
20260509082534 68 97 1.0 2.0 0.00 0.06 0.00 88 1006.7
20260509082033 67 88 1.0 2.0 0.00 0.06 0.00 88 1006.7
20260509081555 67 88 1.0 2.0 0.00 0.06 0.00 89 1006.7
20260509081023 68 88 1.0 1.0 0.00 0.06 0.00 89 1006.8
20260509080606 67 113 1.0 1.0 0.00 0.06 0.00 88 1007.0
20260509080047 67 112 1.0 1.0 0.00 0.06 0.00 90 1007.4
20260509075534 67 131 1.0 2.0 0.00 0.06 0.00 92 1007.7
20260509075034 67 127 1.0 2.0 0.00 0.06 0.00 93 1007.9
20260509074534 68 122 1.0 2.0 0.00 0.06 0.00 94 1008.3
20260509074034 68 104 1.0 3.0 0.00 0.06 0.00 92 1008.8
20260509073534 68 92 1.0 2.0 0.00 0.06 0.00 92 1009.6
20260509073034 68 93 1.0 1.0 0.00 0.07 0.00 94 1009.9
20260509072534 68 89 1.0 1.0 0.00 0.08 0.00 96 1010.1
20260509072033 68 119 0.0 2.0 0.00 0.09 0.00 96 1010.5
20260509071534 68 126 1.0 1.0 0.00 0.11 0.00 97 1010.6
20260509071023 68 122 1.0 2.0 0.00 0.12 0.00 97 1010.8
20260509070626 68 121 1.0 2.0 0.00 0.16 0.00 97 1010.9
20260509070047 68 121 1.0 2.0 0.00 0.18 0.00 97 1011.0
20260509065534 68 142 1.0 3.0 0.00 0.18 0.00 97 1011.1
20260509065053 68 130 1.0 2.0 0.00 0.18 0.00 97 1011.4
20260509064535 68 124 1.0 1.0 0.00 0.18 0.00 97 1011.2
20260509064032 68 117 1.0 1.0 0.00 0.18 0.00 97 1011.6
20260509063614 68 111 0.0 1.0 0.00 0.18 0.00 97 1011.8
20260509063054 68 111 0.0 1.0 0.00 0.18 0.00 97 1011.8
20260509062534 68 119 0.0 1.0 0.00 0.18 0.00 97 1012.0
20260509062034 68 107 0.0 1.0 0.00 0.18 0.00 97 1011.9
20260509061527 68 117 0.0 1.0 0.00 0.18 0.00 97 1012.1
20260509061110 68 109 0.0 1.0 0.00 0.18 0.00 97 1012.2
20260509060550 68 144 0.0 2.0 0.00 0.18 0.00 97 1012.5
20260509060032 67 86 0.0 1.0 0.00 0.18 0.00 97 1012.4
20260509055614 67 0.0 0.0 0.00 0.18 0.00 96 1012.3
20260509055114 67 0.0 0.0 0.00 0.18 0.00 96 1012.3
20260509054555 68 0.0 0.0 0.00 0.18 0.00 96 1012.2
20260509054118 68 0.0 0.0 0.00 0.18 0.00 95 1012.0
20260509053558 68 0.0 0.0 0.00 0.18 0.00 95 1011.7
20260509053036 68 107 0.0 1.0 0.00 0.18 0.00 94 1011.5
20260509052622 69 105 0.0 1.0 0.00 0.18 0.00 94 1011.8
20260509052103 69 73 0.0 1.0 0.00 0.18 0.00 94 1012.1
20260509051536 69 47 1.0 3.0 0.00 0.18 0.00 94 1012.3
20260509051023 69 41 1.0 2.0 0.00 0.18 0.00 93 1012.4
20260509050626 69 45 1.0 3.0 0.00 0.18 0.00 93 1012.7
20260509050039 70 54 1.0 3.0 0.00 0.18 0.00 93 1012.7
20260509045547 70 20 3.0 7.0 0.00 0.18 0.18 93 1012.7
20260509045054 70 47 2.0 3.0 0.00 0.18 0.18 93 1012.6
20260509044535 69 35 2.0 3.0 0.00 0.18 0.18 94 1012.2
20260509044118 69 75 0.0 1.0 0.00 0.18 0.18 94 1011.4
20260509043558 69 110 0.0 1.0 0.00 0.18 0.18 94 1011.1
20260509043037 69 109 0.0 1.0 0.00 0.18 0.18 94 1011.1
20260509042622 69 0.0 0.0 0.00 0.18 0.18 94 1011.0
20260509042143 69 101 0.0 1.0 0.00 0.18 0.18 94 1010.9
20260509041536 69 107 0.0 1.0 0.00 0.18 0.18 94 1010.6
20260509041023 69 111 1.0 1.0 0.00 0.18 0.18 94 1010.5
20260509040606 69 111 1.0 1.0 0.00 0.18 0.18 94 1010.5
20260509040036 69 108 1.0 1.0 0.00 0.18 0.18 94 1010.6
20260509035527 69 99 0.0 1.0 0.00 0.18 0.18 94 1010.8
20260509035110 69 81 0.0 1.0 0.00 0.18 0.18 94 1010.7
20260509034551 69 0.0 0.0 0.00 0.18 0.18 93 1010.7
20260509034031 69 128 0.0 1.0 0.00 0.18 0.18 93 1010.6
20260509033614 69 96 1.0 2.0 0.00 0.18 0.18 92 1010.6
20260509033055 70 92 0.0 1.0 0.00 0.18 0.18 92 1010.6
20260509032555 70 60 1.0 5.0 0.00 0.18 0.18 91 1010.9
20260509032119 70 76 2.0 5.0 0.00 0.18 0.18 91 1010.7
20260509031558 70 57 2.0 5.0 0.00 0.18 0.18 91 1010.7
20260509031035 69 64 1.0 3.0 0.00 0.18 0.18 92 1010.6
20260509030535 69 79 1.0 2.0 0.00 0.18 0.18 92 1010.3
20260509030036 69 76 0.0 1.0 0.00 0.18 0.18 92 1010.0
20260509025535 69 75 1.0 1.0 0.00 0.18 0.18 92 1009.8
20260509025035 69 96 0.0 1.0 0.00 0.18 0.18 92 1009.5
20260509024535 69 109 0.0 1.0 0.00 0.18 0.18 92 1009.3
20260509024035 69 0.0 0.0 0.00 0.18 0.18 92 1009.2
20260509023535 69 123 0.0 3.0 0.00 0.18 0.18 92 1009.0
20260509023036 69 100 0.0 1.0 0.00 0.18 0.18 92 1008.8
20260509022535 69 118 1.0 2.0 0.00 0.18 0.18 91 1008.4
20260509022035 70 123 1.0 2.0 0.00 0.18 0.18 91 1008.5
20260509021536 70 121 1.0 2.0 0.00 0.18 0.18 91 1008.6
20260509021035 70 122 1.0 2.0 0.00 0.18 0.18 90 1008.5
20260509020535 70 113 1.0 1.0 0.00 0.18 0.18 90 1008.5
20260509020036 70 116 1.0 1.0 0.00 0.18 0.18 90 1008.3
20260509015535 70 115 1.0 1.0 0.00 0.18 0.18 90 1008.4
20260509015035 70 117 1.0 1.0 0.00 0.18 0.18 90 1008.4
20260509014555 70 124 1.0 2.0 0.00 0.18 0.18 89 1008.4
20260509014035 70 124 1.0 2.0 0.00 0.18 0.18 89 1008.7
20260509013535 70 116 1.0 1.0 0.00 0.18 0.18 88 1008.8
20260509013036 71 114 1.0 1.0 0.00 0.18 0.18 88 1008.9
20260509012535 71 103 0.0 1.0 0.00 0.18 0.18 88 1009.1
20260509012035 71 105 0.0 1.0 0.00 0.18 0.18 87 1009.1
20260509011536 71 101 0.0 1.0 0.00 0.18 0.18 87 1009.1
20260509011035 71 0.0 0.0 0.00 0.18 0.18 87 1009.1
20260509010535 72 99 0.0 1.0 0.00 0.18 0.18 86 1009.0
20260509010035 72 114 1.0 1.0 0.00 0.18 0.18 86 1008.9
20260509005555 72 117 1.0 1.0 0.00 0.18 0.18 86 1009.0
20260509005035 72 108 0.0 1.0 0.00 0.18 0.18 85 1009.0
20260509004536 72 110 1.0 2.0 0.00 0.18 0.18 85 1008.9
20260509004035 72 105 0.0 1.0 0.00 0.18 0.18 85 1008.9
20260509003536 72 120 1.0 1.0 0.00 0.18 0.18 84 1008.8
20260509003024 73 94 1.0 2.0 0.00 0.18 0.18 84 1008.8
20260509002607 73 113 1.0 2.0 0.00 0.18 0.18 84 1008.6
20260509002047 73 108 1.0 2.0 0.00 0.18 0.18 83 1008.6
20260509001528 73 129 1.0 2.0 0.00 0.18 0.18 83 1008.5
20260509001110 73 144 2.0 3.0 0.00 0.18 0.18 83 1008.5
20260509000550 73 141 2.0 3.0 0.00 0.18 0.18 83 1008.5
20260509000031 73 138 1.0 2.0 0.00 0.18 0.18 83 1008.7
20260508235614 73 119 1.0 2.0 0.00 0.18 0.18 83 1008.7
20260508235115 73 131 1.0 2.0 0.00 0.18 0.18 82 1008.7
20260508234535 73 121 1.0 2.0 0.00 0.18 0.18 82 1008.7
20260508234035 73 132 1.0 2.0 0.00 0.18 0.18 81 1008.8
20260508233615 74 141 1.0 2.0 0.00 0.18 0.18 79 1008.9
20260508233035 74 146 1.0 2.0 0.00 0.18 0.18 78 1008.9
20260508232535 75 146 1.0 2.0 0.00 0.18 0.18 78 1008.9
20260508232036 75 143 1.0 3.0 0.00 0.18 0.18 77 1009.0
20260508231535 75 149 1.0 3.0 0.00 0.18 0.18 77 1009.0
20260508231035 76 135 1.0 2.0 0.00 0.18 0.18 77 1009.1
20260508230535 76 130 1.0 2.0 0.00 0.18 0.18 76 1009.0
20260508230035 76 124 1.0 2.0 0.00 0.18 0.18 76 1009.1
20260508225535 76 172 1.0 3.0 0.00 0.18 0.18 75 1009.1
20260508225035 76 116 1.0 3.0 0.00 0.18 0.18 74 1009.0
20260508224535 76 148 1.0 2.0 0.00 0.18 0.18 75 1009.0
20260508224036 76 139 1.0 2.0 0.00 0.18 0.18 74 1009.1
20260508223535 77 123 1.0 2.0 0.00 0.18 0.18 74 1009.0
20260508223035 76 142 1.0 3.0 0.00 0.18 0.18 74 1009.1
20260508222536 77 188 1.0 2.0 0.00 0.18 0.18 72 1009.0
20260508222035 77 149 1.0 2.0 0.00 0.18 0.18 72 1009.0
20260508221536 77 129 1.0 2.0 0.00 0.18 0.18 72 1009.0
20260508221035 76 163 2.0 3.0 0.00 0.18 0.18 72 1009.0
20260508220535 76 154 2.0 3.0 0.00 0.18 0.18 72 1009.1
20260508220138 76 144 2.0 5.0 0.00 0.18 0.18 72 1009.1
20260508215619 77 153 2.0 3.0 0.00 0.18 0.18 72 1009.0
20260508215040 77 176 2.0 3.0 0.00 0.18 0.18 71 1009.1
20260508214535 77 150 2.0 3.0 0.00 0.18 0.18 71 1009.0
20260508214035 77 164 1.0 2.0 0.00 0.18 0.18 71 1009.0
20260508213535 77 161 2.0 3.0 0.00 0.18 0.18 71 1009.1
20260508213036 77 142 2.0 3.0 0.00 0.18 0.18 71 1009.0
20260508212623 77 134 1.0 3.0 0.00 0.18 0.18 70 1009.3
20260508212046 77 150 1.0 3.0 0.00 0.18 0.18 70 1009.3
20260508211536 78 166 1.0 3.0 0.00 0.18 0.18 70 1009.3
20260508211035 77 134 1.0 2.0 0.00 0.18 0.18 71 1009.4
20260508210535 77 165 1.0 3.0 0.00 0.18 0.18 71 1009.5
20260508210032 77 103 1.0 2.0 0.00 0.18 0.18 71 1009.6
20260508205614 77 153 1.0 3.0 0.00 0.18 0.18 71 1009.6
20260508205055 76 124 1.0 2.0 0.00 0.18 0.18 71 1009.7
20260508204535 76 142 2.0 5.0 0.00 0.18 0.18 70 1009.9
20260508204035 76 135 1.0 2.0 0.00 0.18 0.18 72 1009.9
20260508203535 76 105 1.0 2.0 0.00 0.18 0.18 71 1010.0
20260508203036 76 132 1.0 2.0 0.00 0.18 0.18 72 1010.1
20260508202519 75 166 1.0 3.0 0.00 0.18 0.18 71 1010.4
20260508202124 75 135 1.0 2.0 0.00 0.18 0.18 72 1010.5
20260508201536 74 143 1.0 2.0 0.00 0.18 0.18 72 1010.7
20260508201035 74 112 2.0 2.0 0.00 0.18 0.18 73 1010.8
20260508200535 74 151 2.0 2.0 0.00 0.18 0.18 75 1011.1
20260508200033 73 130 1.0 2.0 0.00 0.18 0.18 75 1011.3
20260508195614 72 130 1.0 2.0 0.00 0.18 0.18 77 1011.3
20260508195055 71 122 1.0 2.0 0.00 0.18 0.18 77 1011.6
20260508194535 71 129 1.0 3.0 0.00 0.18 0.18 76 1011.7
20260508194055 71 134 1.0 2.0 0.00 0.18 0.18 78 1011.6
20260508193535 71 133 1.0 2.0 0.00 0.18 0.18 77 1011.5
20260508193056 71 140 1.0 2.0 0.00 0.18 0.18 77 1011.5
20260508192540 71 121 1.0 2.0 0.00 0.18 0.18 77 1011.5
20260508192104 71 106 1.0 2.0 0.00 0.18 0.18 77 1011.5
20260508191544 71 137 1.0 2.0 0.00 0.18 0.18 76 1011.6
20260508191035 71 114 1.0 1.0 0.00 0.18 0.18 76 1011.6
20260508190555 72 119 1.0 2.0 0.00 0.18 0.18 75 1011.7
20260508190035 73 132 1.0 2.0 0.00 0.18 0.18 74 1011.7
20260508185527 74 138 1.0 2.0 0.00 0.18 0.18 72 1011.7
20260508185111 75 133 1.0 3.0 0.00 0.18 0.18 69 1011.7
20260508184551 76 133 1.0 2.0 0.00 0.18 0.18 69 1011.6
20260508184035 75 137 1.0 3.0 0.00 0.18 0.18 71 1011.6
20260508183535 75 129 2.0 3.0 0.00 0.18 0.18 70 1011.7
20260508183036 75 121 1.0 2.0 0.00 0.18 0.18 70 1011.8
20260508182535 76 122 1.0 2.0 0.00 0.18 0.18 70 1012.0
20260508182119 76 193 2.0 3.0 0.00 0.18 0.18 69 1012.1
20260508181559 75 129 1.0 2.0 0.00 0.18 0.18 71 1012.1
20260508181035 73 111 1.0 2.0 0.00 0.18 0.18 71 1012.2
20260508180535 73 158 2.0 5.0 0.00 0.18 0.18 71 1012.4
20260508180035 73 129 2.0 3.0 0.00 0.18 0.18 71 1012.5
20260508175528 74 136 1.0 3.0 0.00 0.18 0.18 71 1012.5
20260508175111 75 120 2.0 3.0 0.00 0.18 0.18 71 1012.6
20260508174551 74 164 2.0 3.0 0.00 0.18 0.18 72 1012.6
20260508174035 74 156 2.0 3.0 0.00 0.18 0.18 72 1012.8
20260508173535 74 132 1.0 3.0 0.00 0.18 0.18 73 1012.8
20260508173035 73 154 2.0 2.0 0.00 0.18 0.18 75 1012.8
20260508172555 73 127 1.0 2.0 0.00 0.18 0.18 75 1012.7
20260508172035 73 97 1.0 2.0 0.00 0.18 0.18 75 1012.8
20260508171536 73 130 2.0 3.0 0.00 0.18 0.18 75 1012.9
20260508171035 74 121 1.0 2.0 0.00 0.18 0.18 74 1013.0
20260508170535 73 138 1.0 3.0 0.00 0.18 0.18 76 1013.0
20260508170119 72 136 1.0 2.0 0.00 0.18 0.18 76 1013.2
20260508165559 72 123 1.0 2.0 0.00 0.18 0.18 76 1013.3
20260508165100 72 111 1.0 2.0 0.00 0.18 0.18 78 1013.4
20260508164536 72 112 1.0 3.0 0.00 0.18 0.18 79 1013.4
20260508164035 71 128 1.0 2.0 0.00 0.18 0.18 78 1013.5
20260508163615 71 119 2.0 3.0 0.00 0.18 0.18 79 1013.7
20260508163025 70 110 1.0 1.0 0.00 0.18 0.18 81 1013.8
20260508162607 70 102 1.0 3.0 0.00 0.18 0.18 80 1013.9
20260508162047 70 141 1.0 2.0 0.00 0.18 0.18 82 1013.9
20260508161535 70 110 1.0 1.0 0.00 0.18 0.18 82 1013.8
20260508161055 70 143 1.0 2.0 0.00 0.18 0.18 82 1013.9
20260508160535 69 129 2.0 3.0 0.00 0.18 0.18 81 1014.0
20260508160032 68 109 1.0 2.0 0.00 0.18 0.18 84 1013.8
20260508155615 66 95 0.0 1.0 0.00 0.18 0.18 87 1014.0
20260508155055 66 104 0.0 1.0 0.00 0.18 0.18 87 1014.0
20260508154536 66 96 0.0 1.0 0.00 0.18 0.18 87 1014.1
20260508154035 66 97 1.0 1.0 0.00 0.18 0.18 87 1014.2
20260508153535 65 87 0.0 1.0 0.00 0.18 0.18 90 1014.2
20260508153025 64 0.0 0.0 0.00 0.18 0.18 90 1014.3
20260508152607 64 108 0.0 1.0 0.00 0.18 0.18 89 1014.4
20260508152047 64 116 1.0 2.0 0.01 0.18 0.18 90 1014.5
20260508151535 63 112 0.0 1.0 0.02 0.18 0.18 93 1014.5
20260508151035 62 134 0.0 1.0 0.02 0.18 0.18 94 1014.5
20260508150535 62 99 1.0 2.0 0.02 0.18 0.18 95 1014.6
20260508150033 62 0.0 0.0 0.02 0.18 0.18 97 1014.6
20260508145615 62 0.0 0.0 0.02 0.18 0.18 97 1014.6
20260508145055 62 0.0 0.0 0.02 0.18 0.18 98 1014.6
20260508144556 62 0.0 0.0 0.02 0.18 0.18 99 1014.9
20260508144035 61 0.0 0.0 0.02 0.18 0.18 99 1014.8
20260508143535 60 0.0 0.0 0.02 0.18 0.18 99 1014.9
20260508143036 60 86 0.0 1.0 0.02 0.18 0.18 98 1015.1
20260508142555 60 107 0.0 1.0 0.02 0.18 0.18 98 1015.2
20260508142035 60 129 0.0 2.0 0.01 0.17 0.17 99 1015.3
20260508141536 60 0.0 0.0 0.00 0.16 0.16 99 1015.1
20260508141035 60 0.0 0.0 0.00 0.16 0.16 99 1014.8
20260508140535 60 0.0 0.0 0.00 0.16 0.16 99 1014.8
20260508140056 60 0.0 0.0 0.00 0.16 0.16 99 1014.8
20260508135535 60 0.0 0.0 0.00 0.16 0.16 99 1014.6
20260508135035 60 0.0 0.0 0.00 0.16 0.16 99 1015.0
20260508134536 59 0.0 0.0 0.00 0.16 0.16 99 1014.9
20260508134035 60 116 0.0 1.0 0.00 0.16 0.16 99 1014.9
20260508133535 60 99 0.0 1.0 0.00 0.16 0.16 99 1015.0
20260508133036 60 0.0 0.0 0.00 0.16 0.16 99 1015.1
20260508132535 59 108 0.0 1.0 0.00 0.16 0.16 99 1015.1
20260508132035 59 0.0 0.0 0.00 0.16 0.16 99 1015.0
20260508131536 59 0.0 0.0 0.00 0.16 0.16 99 1014.8
20260508131035 59 103 0.0 1.0 0.00 0.16 0.16 99 1014.8
20260508130535 59 113 0.0 1.0 0.00 0.16 0.16 99 1015.0
20260508130035 59 119 0.0 1.0 0.00 0.16 0.16 99 1014.8
20260508125528 59 107 0.0 1.0 0.00 0.16 0.16 99 1014.8
20260508125111 59 0.0 0.0 0.00 0.16 0.16 99 1014.7
20260508124552 59 140 0.0 2.0 0.00 0.16 0.16 99 1014.9
20260508124035 59 118 0.0 1.0 0.00 0.16 0.16 99 1014.8
20260508123535 59 119 0.0 1.0 0.00 0.16 0.16 99 1015.0
20260508123036 59 91 0.0 1.0 0.00 0.16 0.16 99 1014.8
20260508122536 59 0.0 0.0 0.00 0.16 0.16 99 1014.9
20260508122055 59 0.0 0.0 0.00 0.16 0.16 99 1015.0
20260508121556 59 0.0 0.0 0.00 0.16 0.16 99 1014.9
20260508121036 59 72 0.0 1.0 0.00 0.16 0.16 99 1015.0
20260508120535 59 0.0 0.0 0.00 0.16 0.16 99 1015.0
20260508120036 59 0.0 0.0 0.00 0.16 0.16 99 1015.0
20260508115536 59 0.0 0.0 0.00 0.16 0.16 99 1015.2
20260508115024 59 79 0.0 1.0 0.00 0.16 0.16 99 1015.1
20260508114607 59 0.0 0.0 0.00 0.16 0.16 99 1015.3
20260508114047 59 0.0 0.0 0.00 0.16 0.16 99 1015.3
20260508113535 59 0.0 0.0 0.00 0.16 0.16 99 1015.2
20260508113036 59 0.0 0.0 0.00 0.16 0.16 99 1015.0
20260508112555 59 0.0 0.0 0.00 0.16 0.16 99 1014.7
20260508112119 59 0.0 0.0 0.00 0.16 0.16 99 1014.8
20260508111559 59 0.0 0.0 0.00 0.16 0.16 99 1014.8
20260508111040 59 0.0 0.0 0.00 0.16 0.16 99 1014.8
20260508110535 59 0.0 0.0 0.00 0.16 0.16 99 1014.8
20260508110055 58 0.0 0.0 0.00 0.16 0.16 99 1014.8
20260508105535 58 0.0 0.0 0.00 0.16 0.16 99 1014.7
20260508105035 58 0.0 0.0 0.00 0.16 0.16 99 1014.8
20260508104536 58 0.0 0.0 0.00 0.16 0.16 99 1014.6
20260508104119 58 0.0 0.0 0.00 0.16 0.16 99 1014.7
20260508103600 58 0.0 0.0 0.00 0.16 0.16 99 1014.6
20260508103036 58 0.0 0.0 0.04 0.16 0.16 99 1014.6
20260508102535 58 0.0 0.0 0.04 0.16 0.16 99 1014.6
20260508102032 58 0.0 0.0 0.04 0.16 0.16 99 1014.7
20260508101615 58 0.0 0.0 0.04 0.16 0.16 99 1014.6
20260508101055 58 0.0 0.0 0.04 0.16 0.16 99 1014.5
20260508100555 58 82 0.0 1.0 0.04 0.16 0.16 99 1014.7
20260508100035 59 96 0.0 1.0 0.04 0.16 0.16 99 1014.9
20260508095535 59 0.0 0.0 0.04 0.16 0.16 99 1014.8
20260508095035 59 0.0 0.0 0.04 0.16 0.16 99 1014.7
20260508094535 58 0.0 0.0 0.04 0.16 0.16 99 1014.6
20260508094035 58 73 1.0 1.0 0.04 0.16 0.16 99 1014.5
20260508093548 59 0.0 0.0 0.04 0.16 0.16 99 1014.7
20260508093111 59 0.0 0.0 0.00 0.12 0.12 99 1014.7
20260508092632 58 0.0 0.0 0.00 0.12 0.12 99 1014.4
20260508092032 58 0.0 0.0 0.00 0.12 0.12 99 1014.3
20260508091616 58 0.0 0.0 0.00 0.12 0.12 99 1014.3
20260508091056 58 0.0 0.0 0.00 0.12 0.12 99 1014.3
20260508090536 58 0.0 0.0 0.00 0.12 0.12 99 1014.5
20260508090036 58 0.0 0.0 0.00 0.12 0.12 99 1014.4
20260508085535 59 0.0 0.0 0.00 0.12 0.12 99 1014.6
20260508085035 59 0.0 0.0 0.00 0.12 0.12 99 1014.7
20260508084535 59 0.0 0.0 0.00 0.12 0.12 99 1014.8
20260508084120 59 0.0 0.0 0.00 0.12 0.12 99 1014.8
20260508083543 59 0.0 0.0 0.00 0.12 0.12 99 1014.7